This is the latest recevied weather packets stored in our database for station/object W1GK. If no packets are shown the sender has not sent any weather packets the latest 10 day(s).
| Time | Temp. | Humidity | Pressure | Rain* | Wind** | Luminosity | Snow |
|---|---|---|---|---|---|---|---|
| 1788122394 | 38.33° C | 15% | 1012.6 hPa | 0 mm | - | 833 W/m² | - |
| 1788121794 | 37.78° C | 15% | 1012.6 hPa | 0 mm | - | 740 W/m² | - |
| 1788121194 | 37.78° C | 15% | 1012.8 hPa | 0 mm | - | 638 W/m² | - |
| 1788120593 | 37.78° C | 15% | 1012.8 hPa | 0 mm | - | 694 W/m² | - |
| 1788119996 | 37.22° C | 15% | 1012.9 hPa | 0 mm | - | 643 W/m² | - |
| 1788119394 | 37.22° C | 15% | 1013 hPa | 0 mm | - | 761 W/m² | - |
| 1788118794 | 37.22° C | 15% | 1013.1 hPa | 0 mm | - | 956 W/m² | - |
| 1788118195 | 36.67° C | 15% | 1013.2 hPa | 0 mm | - | 735 W/m² | - |
| 1788117595 | 36.11° C | 16% | 1013.4 hPa | 0 mm | - | 1042 W/m² | - |
| 1788116995 | 36.11° C | 17% | 1013.4 hPa | 0 mm | - | 592 W/m² | - |
| 1788116397 | 34.44° C | 18% | 1013.6 hPa | 0 mm | - | 413 W/m² | - |
| 1788115794 | 34.44° C | 17% | 1013.8 hPa | 0 mm | - | 357 W/m² | - |
| 1788115193 | 34.44° C | 17% | 1013.8 hPa | 0 mm | - | 392 W/m² | - |
| 1788114593 | 33.89° C | 18% | 1013.9 hPa | 0 mm | - | 329 W/m² | - |
| 1788113994 | 33.89° C | 18% | 1013.9 hPa | 0 mm | - | 276 W/m² | - |
| 1788113394 | 33.33° C | 18% | 1013.9 hPa | 0 mm | - | 937 W/m² | - |
| 1788112796 | 33.33° C | 18% | 1013.9 hPa | 0 mm | - | 304 W/m² | - |
| 1788112194 | 33.89° C | 17% | 1013.9 hPa | 0 mm | - | 239 W/m² | - |
| 1788111594 | 33.89° C | 17% | 1013.9 hPa | 0 mm | - | 308 W/m² | - |
| 1788110996 | 34.44° C | 17% | 1013.9 hPa | 0 mm | - | 309 W/m² | - |
| 1788110394 | 33.89° C | 18% | 1013.8 hPa | 0 mm | - | 846 W/m² | - |
| 1788109795 | 33.89° C | 17% | 1013.8 hPa | 0 mm | - | 826 W/m² | - |
| 1788109197 | 33.33° C | 18% | 1013.7 hPa | 0 mm | - | 809 W/m² | - |
| 1788108594 | 32.78° C | 19% | 1013.7 hPa | 0 mm | - | 742 W/m² | - |
| 1788107995 | 32.22° C | 19% | 1013.7 hPa | 0 mm | - | 671 W/m² | - |
* Rain latest hour (hover to see other rain measurements)
** Current wind speed in m/s (hover to see current wind gust speed)